Eureka, Nunavut

11:32 PM CDT on September 24, 2016 (GMT -0500)
Eureka

Weather History for CWEU - March, 2014

Change the Weather History Date:

Monday, March 24, 2014

  Actual Average Record
Temperature  
Mean Temperature -30 °F -  
Max Temperature -25 °F -25 °F 10 °F (2011)
Min Temperature -36 °F -35 °F -49 °F (2001)
Degree Days  
Heating Degree Days 96    
Moisture  
Dew Point -38 °F    
Average Humidity 62    
Maximum Humidity 69    
Minimum Humidity 45    
Precipitation  
Precipitation 0.00 in - - ()
Sea Level Pressure  
Sea Level Pressure 29.82 in    
Wind  
Wind Speed 3 mph ()    
Max Wind Speed 9 mph    
Max Gust Speed -    
Visibility 14.6 miles    
Events Snow    
Averages and records for this station are not official NWS values.
T = Trace of Precipitation, MM = Missing Value Source: Averaged Metar Reports

Daily Weather History Graph

Daily Weather History Graph

Search for Another Location

Airport or City:

Trip Planner

Search our weather history database for the weather conditions in past years. The results will help you decide how hot, cold, wet, or windy it might be!

Date:

Astronomy

Mar. 24, 2014 Rise Set
Actual Time 5:56 AM CDT 7:48 PM CDT
Civil Twilight 3:37 AM CDT 10:12 PM CDT
Nautical Twilight Sun does not set Sun does not set
Astronomical Twilight Sun does not set Sun does not set
Moon No Moon Rise No Moon Set
Length of Visible Light 18h 34m
Length of Day
13h 51m
Last Quarter, 43% of the Moon is Illuminated
Mar 24
Last Quarter
Mar 30
New
Apr 7
First Quarter
Apr 15
Full
Apr 22
Last Quarter

Hourly Weather History & Observations

Time (CDT) Temp. Windchill Dew Point Humidity Pressure Visibility Wind Dir Wind Speed Gust Speed Precip Events Conditions
1:00 AM -35 °F - -43 °F 45% 29.82 in 15 mi SE 3.5 mph - - Snow Snow
1:00 AM -34.6 °F -50.3 °F -43.6 °F 61% 29.82 in 15.0 mi SE 4.6 mph - N/A   Mostly Cloudy
2:00 AM -31.0 °F - -38.2 °F 68% 29.81 in 15.0 mi NNE 2.3 mph - N/A   Mostly Cloudy
3:00 AM -31.0 °F - -40.0 °F 62% 29.80 in 15.0 mi Calm Calm - N/A   Mostly Cloudy
3:41 AM - - - N/A% - 15.0 mi SE 6.9 mph - N/A   Unknown
4:00 AM -32.8 °F -45.3 °F -40.0 °F 68% 29.80 in 15.0 mi SE 3.5 mph - N/A Snow Light Snow
5:00 AM -31.0 °F - -40.0 °F 62% 29.80 in 15.0 mi ESE 2.3 mph - N/A Snow Light Snow
6:00 AM -32.8 °F - -40.0 °F 68% 29.80 in 15.0 mi South 2.3 mph - N/A Snow Light Snow
7:00 AM -31 °F - -39 °F 49% 29.79 in 15 mi Calm Calm - - Snow Light Snow
7:00 AM -31.0 °F - -38.2 °F 68% 29.79 in 15.0 mi Calm Calm - N/A Snow Light Snow
8:00 AM -31.0 °F - -40.0 °F 62% 29.79 in 15.0 mi WNW 2.3 mph - N/A Snow Light Snow
9:00 AM -31.0 °F - -38.2 °F 68% 29.78 in 15.0 mi ENE 2.3 mph - N/A   Mostly Cloudy
10:00 AM -29.2 °F -46.2 °F -38.2 °F 62% 29.79 in 10.0 mi West 5.8 mph - N/A   Mostly Cloudy
11:00 AM -29.2 °F - -36.4 °F 68% 29.80 in 10.0 mi East 2.3 mph - N/A   Overcast
12:00 PM -29.2 °F - -38.2 °F 62% 29.80 in 15.0 mi Calm Calm - N/A   Mostly Cloudy
1:00 PM -28 °F - -36 °F 47% 29.80 in 15 mi SE 8.1 mph - - Snow Snow
1:00 PM -27.4 °F -49.0 °F -36.4 °F 62% 29.80 in 15.0 mi SE 9.2 mph - N/A   Mostly Cloudy
2:00 PM -25.6 °F -41.9 °F -34.6 °F 63% 29.81 in 15.0 mi SE 5.8 mph - N/A   Mostly Cloudy
3:00 PM -27.4 °F - -34.6 °F 69% 29.82 in 15.0 mi ENE 2.3 mph - N/A   Mostly Cloudy
4:00 PM -25.6 °F -39.8 °F -34.6 °F 63% 29.83 in 15.0 mi SE 4.6 mph - N/A   Mostly Cloudy
5:00 PM -27.4 °F - -38.2 °F 57% 29.84 in 15.0 mi East 2.3 mph - N/A   Mostly Cloudy
6:00 PM -25.6 °F - -34.6 °F 63% 29.86 in 15.0 mi East 2.3 mph - N/A   Mostly Cloudy
8:00 PM -31.0 °F -43.3 °F -41.8 °F 56% 29.89 in 15.0 mi SE 3.5 mph - N/A   Mostly Cloudy
9:00 PM -29.2 °F -41.2 °F -36.4 °F 68% 29.91 in 15.0 mi East 3.5 mph - N/A   Mostly Cloudy
10:00 PM -31.0 °F - -38.2 °F 68% 29.92 in 15.0 mi Calm Calm - N/A   Mostly Cloudy